[[{"header":{"parameterUnit":"m.s-1","parameterCategory":2,"la1":30.2991,"la2":30.254,"lo1":-89.0895,"lo2":-89.0444,"dy":0.0017,"dx":0.0017,"nx":28,"ny":28,"refTime":"2023-10-15T03:00:00:Z","depth":"0","parameterNumber":2,"parameterNumberName":"U-component_of_CURRENTS"},"data":[0,0,0,0,0,0,0,0,0,0,0,0,0,0,0,0,0,0,0,0,0,0,0,0,0,0,0,0,0,0,0,0,0,0,0,0,0,0,0,0,0,0,0,0,0,0,0,0,0,0,0,0,0,0,0,0,0,0,-0.2139,-0.2139,0,-0.2195,-0.2196,-0.2196,-0.2173,-0.2172,-0.2171,-0.217,-0.2201,-0.2203,-0.2205,0,0,0,0,0,0,0,0,0,0,0,0,0,-0.208,-0.2081,-0.2139,-0.2139,-0.214,-0.2195,-0.2196,-0.2196,-0.2174,-0.2172,-0.2171,-0.217,-0.2201,-0.2203,-0.2205,0,0,0,0,0,0,0,0,0,0,0,0,0,-0.2116,-0.2081,-0.2138,-0.2137,-0.2138,-0.2195,-0.2196,-0.2196,-0.2174,-0.2172,-0.217,-0.2169,-0.22,-0.2203,-0.2206,-0.2257,0,0,-0.2214,-0.2216,0,0,0,0,0,0,0,0,-0.2114,-0.2118,-0.2137,-0.2138,-0.2138,-0.2177,-0.2187,-0.2216,-0.2174,-0.2158,-0.217,-0.2168,-0.2194,-0.2197,-0.2209,-0.2259,-0.226,-0.2215,-0.2216,-0.2218,-0.2218,0,0,0,0,0,0,0,-0.2111,-0.2115,-0.2159,-0.2138,-0.2139,-0.2158,-0.216,-0.2193,-0.2182,-0.2159,-0.2158,-0.2169,-0.2194,-0.2206,-0.2209,-0.226,-0.2215,-0.2217,-0.2219,-0.222,-0.2314,-0.2314,0,0,0,0,0,0,-0.2107,-0.2113,-0.2157,-0.2161,-0.2124,-0.216,-0.2163,-0.2165,-0.2183,-0.2185,-0.217,-0.2167,-0.2202,-0.2206,-0.221,-0.2246,-0.2218,-0.222,-0.2222,-0.2313,-0.2314,-0.2315,0,0,0,0,0,0,-0.2105,-0.211,-0.2155,-0.214,-0.2147,-0.2163,-0.2166,-0.2167,-0.217,-0.2192,-0.2192,-0.217,-0.2201,-0.2206,-0.2233,-0.2247,-0.2221,-0.2224,-0.2312,-0.2313,-0.2314,-0.2334,0,0,0,0,0,0,-0.2103,-0.2109,-0.2108,-0.214,-0.2148,-0.2184,-0.2168,-0.2169,-0.2181,-0.2177,-0.2193,-0.2194,-0.22,-0.2229,-0.2236,-0.2251,-0.2226,-0.2311,-0.2312,-0.2314,-0.2332,-0.2335,-0.2338,0,0,0,0,0,-0.2101,-0.211,-0.2107,-0.2113,-0.2146,-0.2185,-0.2191,-0.2195,-0.2182,-0.2189,-0.2197,-0.2193,-0.2242,-0.2232,-0.224,-0.2256,-0.231,-0.2312,-0.2314,-0.2331,-0.2335,-0.2338,0,0,0,0,0,0,-0.2084,-0.211,-0.2107,-0.2122,-0.2148,-0.2181,-0.2193,-0.2197,-0.2211,-0.2201,-0.2212,-0.2216,-0.2242,-0.2251,-0.2239,-0.2287,-0.2273,-0.2277,-0.2283,-0.2287,-0.229,-0.2287,-0.2229,0,0,0,0,0,-0.2081,-0.2088,-0.2122,-0.213,-0.2146,-0.2168,-0.2183,-0.2186,-0.2207,-0.221,-0.2224,-0.2238,-0.2261,-0.2272,-0.2292,-0.2328,-0.2329,-0.2341,-0.2344,-0.2347,-0.2349,-0.2366,-0.2371,-0.232,-0.232,-0.232,0,0,-0.2076,-0.2091,-0.2095,-0.2127,-0.2145,-0.2178,-0.2171,-0.2194,-0.2215,-0.2214,-0.2241,-0.2251,-0.2272,-0.2304,-0.2316,-0.2311,-0.2361,-0.2349,-0.2351,-0.2352,-0.2369,-0.2373,-0.2378,-0.2322,-0.2321,-0.2321,0,0,-0.2081,-0.2085,-0.2099,-0.2125,-0.2156,-0.2178,-0.2184,-0.2217,-0.2223,-0.2258,-0.2257,-0.2276,-0.2315,-0.2331,-0.2345,-0.2381,-0.2376,-0.2384,-0.2402,-0.2419,-0.2423,-0.2426,-0.243,-0.2434,-0.2387,-0.2387,-0.2387,0,-0.2073,-0.2091,-0.211,-0.2138,-0.216,-0.2178,-0.2207,-0.2229,-0.2263,-0.2277,-0.2264,-0.2318,-0.2329,-0.2373,-0.2379,-0.2389,-0.239,-0.2386,-0.2422,-0.2426,-0.2429,-0.2432,-0.2436,-0.2389,-0.2388,-0.2388,-0.2388,0,-0.2093,-0.211,-0.2124,-0.216,-0.2192,-0.2215,-0.2256,-0.2277,-0.2286,-0.2307,-0.2341,-0.2358,-0.2387,-0.2395,-0.2399,-0.2434,-0.2425,-0.2422,-0.2411,-0.2435,-0.2437,-0.2441,-0.239,-0.239,-0.2389,-0.2389,0,0,-0.2063,-0.2124,-0.2126,-0.2148,-0.2201,-0.2229,-0.2273,-0.2318,-0.2345,-0.2366,-0.2401,-0.2431,-0.2429,-0.2444,-0.245,-0.2464,-0.2486,-0.2453,-0.2453,-0.2453,-0.2514,-0.243,-0.2426,-0.2488,-0.2489,-0.249,-0.2503,0,-0.2067,-0.2113,-0.2148,-0.2195,-0.2225,-0.2265,-0.2308,-0.2351,-0.2381,-0.2421,-0.2436,-0.2469,-0.2453,-0.2464,-0.2476,-0.249,-0.2498,-0.2482,-0.2493,-0.2493,-0.2413,-0.2428,-0.2357,-0.2356,-0.2507,-0.2507,-0.2508,0,-0.2071,-0.2101,-0.2146,-0.2211,-0.2229,-0.2265,-0.2331,-0.2368,-0.2431,-0.2456,-0.2487,-0.2504,-0.2536,-0.2511,-0.2538,-0.2528,-0.2519,-0.2521,-0.2521,-0.2439,-0.2416,-0.2357,-0.2357,-0.2303,-0.2514,-0.2513,-0.2513,0,-0.2033,-0.2099,-0.213,-0.2153,-0.2235,-0.2262,-0.23,-0.237,-0.2404,-0.2471,-0.2504,-0.2543,-0.2562,-0.2566,-0.2557,-0.2554,-0.2574,-0.2573,-0.2489,-0.2483,-0.2422,-0.2408,-0.2366,-0.2583,-0.2583,-0.2583,-0.2583,0,-0.2022,-0.2044,-0.2114,-0.2132,-0.2171,-0.2237,-0.2284,-0.2332,-0.2405,-0.2453,-0.2506,-0.255,-0.2576,-0.259,-0.2575,-0.2534,-0.2585,-0.2491,-0.2482,-0.2425,-0.2412,-0.2359,-0.2354,-0.2584,-0.2584,-0.2584,-0.2583,0,-0.1974,-0.2021,-0.2057,-0.2133,-0.2154,-0.2177,-0.2257,-0.2297,-0.2373,-0.2438,-0.246,-0.2555,-0.2572,-0.2574,-0.2587,-0.2547,-0.2464,-0.2494,-0.2414,-0.2393,-0.2246,-0.2245,-0.2197,-0.2115,-0.2411,-0.2409,-0.2408,0,-0.1953,-0.1967,-0.2033,-0.2052,-0.2083,-0.2129,-0.2166,-0.2257,-0.2306,-0.2438,-0.2467,-0.2522,-0.2553,-0.2533,-0.2485,-0.2434,-0.2385,-0.2317,-0.2293,-0.2221,-0.2215,-0.2214,-0.2148,-0.2229,-0.2226,-0.2223,-0.2221,0,-0.1903,-0.1924,-0.1955,-0.1984,-0.2021,-0.2062,-0.2123,-0.2159,-0.2276,-0.2341,-0.2432,-0.2472,-0.2491,-0.2423,-0.2346,-0.2301,-0.2231,-0.2262,-0.2223,-0.2089,-0.2054,-0.1974,-0.2234,-0.2199,-0.2201,-0.2203,-0.2204,-0.2205,-0.1854,-0.1853,-0.1884,-0.1903,-0.1944,-0.1969,-0.196,-0.2054,-0.2106,-0.2184,-0.2314,-0.2351,-0.2345,-0.2242,-0.2185,-0.2033,-0.2076,-0.1963,-0.1977,-0.1988,-0.1874,-0.2065,-0.1991,-0.1992,-0.1993,-0.1994,-0.1994,0,-0.1778,-0.1782,-0.1799,-0.1814,-0.1806,-0.1857,-0.1907,-0.1886,-0.1905,-0.2041,-0.21,-0.2146,-0.206,-0.2026,-0.1906,-0.1795,-0.1745,-0.1715,-0.1716,-0.1666,-0.1866,-0.182,-0.1662,-0.1662,-0.1662,-0.1662,-0.1662,-0.1662,-0.174,-0.1713,-0.1713,-0.1656,-0.1663,-0.1601,-0.1593,-0.1597,-0.1653,-0.1712,-0.1792,-0.1923,-0.1919,-0.1931,-0.1752,-0.1638,-0.1548,-0.1502,-0.1476,-0.1643,-0.1669,-0.1693,-0.1647,-0.1455,-0.1455,-0.1231,-0.1229,-0.1228]},{"header":{"parameterUnit":"m.s-1","parameterCategory":2,"la1":30.2991,"la2":30.254,"lo1":-89.0895,"lo2":-89.0444,"dy":0.0017,"dx":0.0017,"nx":28,"ny":28,"refTime":"2023-10-15T03:00:00:Z","depth":"0","parameterNumber":3,"parameterNumberName":"V-component_of_CURRENTS"},"data":[0,0,0,0,0,0,0,0,0,0,0,0,0,0,0,0,0,0,0,0,0,0,0,0,0,0,0,0,0,0,0,0,0,0,0,0,0,0,0,0,0,0,0,0,0,0,0,0,0,0,0,0,0,0,0,0,0,0,-0.0322,-0.0322,0,-0.0279,-0.0279,-0.0278,-0.024,-0.0239,-0.0239,-0.0238,-0.0187,-0.0186,-0.0185,0,0,0,0,0,0,0,0,0,0,0,0,0,-0.0349,-0.0349,-0.0322,-0.0321,-0.0321,-0.0279,-0.0279,-0.0278,-0.024,-0.0239,-0.0239,-0.0238,-0.0187,-0.0186,-0.0185,0,0,0,0,0,0,0,0,0,0,0,0,0,-0.0326,-0.0349,-0.0322,-0.0296,-0.0293,-0.0279,-0.0279,-0.0278,-0.024,-0.0239,-0.0238,-0.0238,-0.0187,-0.0186,-0.0185,-0.0194,0,0,-0.0181,-0.018,0,0,0,0,0,0,0,0,-0.0327,-0.0325,-0.03,-0.0298,-0.0294,-0.0263,-0.0269,-0.0249,-0.024,-0.0261,-0.0238,-0.0237,-0.0211,-0.0208,-0.0203,-0.0191,-0.0189,-0.0181,-0.018,-0.0179,-0.0179,0,0,0,0,0,0,0,-0.0329,-0.0326,-0.0306,-0.03,-0.0296,-0.0278,-0.0274,-0.0265,-0.0242,-0.026,-0.0256,-0.025,-0.021,-0.0205,-0.0202,-0.0188,-0.0181,-0.018,-0.0179,-0.0178,-0.0173,-0.0173,0,0,0,0,0,0,-0.0334,-0.0328,-0.0308,-0.0305,-0.0308,-0.0279,-0.0274,-0.0275,-0.0242,-0.0236,-0.0251,-0.0248,-0.0207,-0.0203,-0.02,-0.0205,-0.0179,-0.0178,-0.0177,-0.0172,-0.0173,-0.0173,0,0,0,0,0,0,-0.0335,-0.0333,-0.0309,-0.0314,-0.031,-0.0279,-0.028,-0.0274,-0.0267,-0.0236,-0.0229,-0.0248,-0.0207,-0.0202,-0.0196,-0.0203,-0.0178,-0.0176,-0.0171,-0.0172,-0.0173,-0.0217,0,0,0,0,0,0,-0.0336,-0.0334,-0.0338,-0.0315,-0.0309,-0.0306,-0.028,-0.0274,-0.0263,-0.026,-0.0232,-0.0226,-0.0206,-0.0198,-0.0195,-0.0201,-0.0175,-0.017,-0.0172,-0.0173,-0.0215,-0.022,-0.0224,0,0,0,0,0,-0.0337,-0.0345,-0.0339,-0.0336,-0.0316,-0.0307,-0.0303,-0.0278,-0.0264,-0.0267,-0.0249,-0.0227,-0.0203,-0.0198,-0.0194,-0.0199,-0.017,-0.0171,-0.0173,-0.0213,-0.0219,-0.0223,0,0,0,0,0,0,-0.0354,-0.0341,-0.0334,-0.0336,-0.0325,-0.03,-0.0298,-0.0283,-0.0271,-0.0267,-0.0237,-0.0231,-0.0228,-0.0211,-0.0206,-0.0201,-0.0182,-0.0183,-0.0214,-0.0219,-0.0223,-0.0222,-0.0174,0,0,0,0,0,-0.0363,-0.0369,-0.035,-0.0354,-0.0349,-0.0326,-0.0319,-0.0305,-0.0289,-0.0282,-0.0262,-0.0243,-0.0232,-0.0224,-0.0211,-0.0212,-0.0172,-0.0212,-0.0216,-0.022,-0.0216,-0.0174,-0.0174,-0.0178,-0.0178,-0.0178,0,0,-0.037,-0.0364,-0.0367,-0.0359,-0.0347,-0.0352,-0.032,-0.0314,-0.0317,-0.028,-0.0279,-0.0259,-0.0236,-0.0234,-0.0231,-0.022,-0.0196,-0.0221,-0.0225,-0.0219,-0.0175,-0.0175,-0.0174,-0.0179,-0.0179,-0.0178,0,0,-0.0394,-0.0384,-0.04,-0.0395,-0.0383,-0.0371,-0.0372,-0.0351,-0.0339,-0.0339,-0.0311,-0.0295,-0.0281,-0.0261,-0.0251,-0.0272,-0.0221,-0.027,-0.0288,-0.0248,-0.0247,-0.0245,-0.0183,-0.0176,-0.027,-0.0271,-0.0271,0,-0.0402,-0.042,-0.0402,-0.0415,-0.0413,-0.0384,-0.0399,-0.0386,-0.0367,-0.0357,-0.0346,-0.0311,-0.0293,-0.028,-0.0287,-0.028,-0.0241,-0.027,-0.0252,-0.025,-0.0248,-0.0184,-0.0176,-0.0273,-0.0273,-0.0272,-0.0272,0,-0.0438,-0.0452,-0.0458,-0.0468,-0.0466,-0.0473,-0.0453,-0.0447,-0.0429,-0.0411,-0.0391,-0.0361,-0.0337,-0.033,-0.0316,-0.0294,-0.0265,-0.0263,-0.0237,-0.025,-0.0182,-0.0173,-0.0276,-0.0275,-0.0275,-0.0274,0,0,-0.0458,-0.0481,-0.0484,-0.0502,-0.0494,-0.05,-0.05,-0.049,-0.0485,-0.0458,-0.0443,-0.0419,-0.0388,-0.0373,-0.0345,-0.031,-0.026,-0.0283,-0.028,-0.0217,-0.015,-0.0109,-0.0094,-0.0254,-0.0252,-0.0252,-0.0104,0,-0.0491,-0.0535,-0.0531,-0.057,-0.059,-0.0564,-0.0566,-0.0551,-0.0527,-0.0505,-0.0455,-0.0436,-0.0408,-0.0394,-0.0355,-0.0285,-0.0238,-0.0298,-0.015,-0.0145,-0.0105,-0.0083,-0.0098,0.0034,-0.0094,-0.0092,-0.0091,0,-0.0528,-0.0553,-0.0598,-0.0625,-0.0629,-0.0642,-0.0635,-0.0633,-0.0588,-0.0566,-0.0524,-0.0481,-0.0421,-0.0402,-0.0272,-0.031,-0.0234,-0.0175,-0.0168,-0.0107,-0.0087,0.0023,0.0057,0.0159,-0.0076,-0.0077,-0.0078,0,-0.0561,-0.0601,-0.0642,-0.065,-0.0669,-0.0677,-0.068,-0.065,-0.0647,-0.0598,-0.0582,-0.0502,-0.0455,-0.0358,-0.023,-0.025,-0.0074,-0.0087,0.0028,0.0033,0.0062,0.0067,0.0215,0.0006,0.0006,0.0005,0.0005,0,-0.0601,-0.0634,-0.0662,-0.0685,-0.0725,-0.0716,-0.0738,-0.0724,-0.0694,-0.0689,-0.0615,-0.0578,-0.0443,-0.0328,-0.0222,-0.005,-0.0061,0.0042,0.0074,0.0047,0.0049,0.0172,0.0215,0.0011,0.001,0.0009,0.0008,0,-0.0637,-0.0653,-0.0706,-0.0736,-0.0746,-0.0774,-0.0791,-0.0803,-0.0762,-0.0748,-0.0733,-0.0618,-0.0463,-0.0309,-0.0127,-0.0032,0.0209,0.0178,0.0153,0.0179,0.0359,0.0399,0.0668,0.0765,0.0325,0.0327,0.0328,0,-0.066,-0.0689,-0.0747,-0.0782,-0.08,-0.0834,-0.0857,-0.084,-0.0847,-0.077,-0.0763,-0.0609,-0.0503,-0.02,-0.0004,0.0215,0.0316,0.0336,0.0285,0.0387,0.0456,0.0543,0.061,0.0317,0.0319,0.032,0.0321,0,-0.0701,-0.072,-0.0766,-0.0835,-0.0878,-0.0924,-0.0949,-0.0964,-0.0931,-0.0902,-0.0816,-0.072,-0.0422,-0.0179,0.0116,0.0243,0.0438,0.0366,0.0473,0.0472,0.0576,0.0677,0.0219,0.0331,0.033,0.0329,0.0328,0.0328,-0.0726,-0.077,-0.0827,-0.0892,-0.0946,-0.1,-0.1028,-0.1043,-0.1044,-0.0996,-0.0876,-0.0734,-0.0349,0.006,0.0221,0.053,0.0554,0.0593,0.0641,0.0727,0.0801,0.038,0.0519,0.0519,0.0519,0.0519,0.0519,0,-0.0752,-0.0806,-0.0878,-0.0958,-0.1022,-0.1034,-0.1078,-0.1087,-0.1088,-0.1033,-0.0938,-0.0577,-0.0203,0.0161,0.0621,0.0782,0.086,0.0866,0.0959,0.1019,0.0636,0.061,0.0772,0.0772,0.0772,0.0772,0.0772,0.0771,-0.0769,-0.0842,-0.0885,-0.0997,-0.1052,-0.1109,-0.1128,-0.1133,-0.1093,-0.0978,-0.0821,-0.0686,-0.0146,0.0627,0.1042,0.1066,0.1252,0.1245,0.1379,0.1046,0.1023,0.1001,0.0987,0.1226,0.1226,0.1752,0.1757,0.176]}],[{"header":{"parameterUnit":"m.s-1","parameterCategory":2,"la1":30.2991,"la2":30.254,"lo1":-89.0895,"lo2":-89.0444,"dy":0.0017,"dx":0.0017,"nx":28,"ny":28,"refTime":"2023-10-15T03:00:00:Z","depth":"2","parameterNumber":2,"parameterNumberName":"U-component_of_CURRENTS"},"data":[0,0,0,0,0,0,0,0,0,0,0,0,0,0,0,0,0,0,0,0,0,0,0,0,0,0,0,0,0,0,0,0,0,0,0,0,0,0,0,0,0,0,0,0,0,0,0,0,0,0,0,0,0,0,0,0,0,0,-0.2097,-0.2098,0,-0.2145,-0.2145,-0.2145,-0.2124,-0.2123,-0.2122,-0.2121,-0.2148,-0.215,-0.2151,0,0,0,0,0,0,0,0,0,0,0,0,0,-0.2038,-0.2039,-0.2097,-0.2098,-0.2098,-0.2145,-0.2145,-0.2145,-0.2124,-0.2123,-0.2122,-0.2121,-0.2148,-0.215,-0.2151,0,0,0,0,0,0,0,0,0,0,0,0,0,-0.207,-0.2039,-0.2097,-0.2095,-0.2096,-0.2144,-0.2145,-0.2146,-0.2125,-0.2123,-0.2122,-0.212,-0.2147,-0.2149,-0.2152,-0.2196,0,0,-0.2159,-0.216,0,0,0,0,0,0,0,0,-0.2068,-0.2072,-0.2094,-0.2095,-0.2096,-0.2129,-0.2134,-0.2162,-0.2125,-0.2111,-0.2121,-0.212,-0.2142,-0.2145,-0.2154,-0.2197,-0.2198,-0.2159,-0.2161,-0.2162,-0.2163,0,0,0,0,0,0,0,-0.2066,-0.207,-0.2113,-0.2096,-0.2096,-0.211,-0.2112,-0.214,-0.2132,-0.2112,-0.2111,-0.2121,-0.2142,-0.2152,-0.2155,-0.2199,-0.2159,-0.2162,-0.2163,-0.2164,-0.2249,-0.2249,0,0,0,0,0,0,-0.2064,-0.2068,-0.2112,-0.2115,-0.2081,-0.2112,-0.2114,-0.2118,-0.2132,-0.2134,-0.2122,-0.212,-0.2149,-0.2152,-0.2156,-0.2189,-0.2162,-0.2164,-0.2166,-0.2248,-0.2249,-0.225,0,0,0,0,0,0,-0.2062,-0.2067,-0.211,-0.2095,-0.2101,-0.2114,-0.2119,-0.212,-0.2123,-0.214,-0.2141,-0.2123,-0.2148,-0.2152,-0.2176,-0.2191,-0.2165,-0.2168,-0.2247,-0.2248,-0.2249,-0.2269,0,0,0,0,0,0,-0.206,-0.2066,-0.2067,-0.2094,-0.2102,-0.2136,-0.212,-0.2122,-0.2133,-0.213,-0.2142,-0.2144,-0.2147,-0.2172,-0.2178,-0.2194,-0.2169,-0.2246,-0.2247,-0.2249,-0.2268,-0.2271,-0.2274,0,0,0,0,0,-0.2058,-0.2069,-0.2067,-0.2073,-0.2103,-0.2137,-0.2142,-0.2145,-0.2134,-0.2141,-0.2147,-0.2143,-0.2185,-0.2175,-0.2182,-0.2198,-0.2245,-0.2247,-0.2249,-0.2266,-0.2271,-0.2274,0,0,0,0,0,0,-0.2043,-0.2069,-0.2067,-0.2084,-0.2106,-0.2134,-0.2145,-0.2147,-0.216,-0.2152,-0.2159,-0.2162,-0.2187,-0.2193,-0.2182,-0.2226,-0.2213,-0.2216,-0.2224,-0.2228,-0.2231,-0.223,-0.2171,0,0,0,0,0,-0.2042,-0.2051,-0.2081,-0.2092,-0.2106,-0.2125,-0.2138,-0.214,-0.2157,-0.216,-0.2172,-0.2184,-0.2204,-0.2214,-0.2231,-0.2264,-0.2266,-0.2276,-0.2279,-0.2282,-0.2286,-0.2302,-0.2307,-0.2255,-0.2255,-0.2255,0,0,-0.2039,-0.2054,-0.2059,-0.2089,-0.2106,-0.2135,-0.2128,-0.2148,-0.2167,-0.2164,-0.2189,-0.2198,-0.2215,-0.2243,-0.2255,-0.2248,-0.2299,-0.2284,-0.2286,-0.2289,-0.2305,-0.231,-0.2314,-0.2257,-0.2256,-0.2256,0,0,-0.2045,-0.2052,-0.2066,-0.209,-0.2118,-0.2136,-0.2142,-0.2172,-0.2177,-0.2209,-0.2207,-0.2224,-0.2258,-0.2271,-0.2283,-0.2318,-0.2315,-0.2321,-0.2339,-0.2356,-0.236,-0.2364,-0.2375,-0.2379,-0.2323,-0.2323,-0.2323,0,-0.2039,-0.2058,-0.2077,-0.2102,-0.2123,-0.2138,-0.2164,-0.2184,-0.2214,-0.2226,-0.2215,-0.2264,-0.2273,-0.2312,-0.2318,-0.2325,-0.233,-0.2323,-0.2359,-0.2363,-0.2367,-0.2377,-0.2382,-0.2325,-0.2324,-0.2324,-0.2324,0,-0.206,-0.2077,-0.2091,-0.2125,-0.2153,-0.2175,-0.2211,-0.2231,-0.2239,-0.2257,-0.229,-0.2304,-0.233,-0.2337,-0.2339,-0.2373,-0.2367,-0.236,-0.2348,-0.2373,-0.2382,-0.2387,-0.2326,-0.2326,-0.2326,-0.2325,0,0,-0.2034,-0.2092,-0.2094,-0.2115,-0.2163,-0.2188,-0.2228,-0.2268,-0.2292,-0.2313,-0.2345,-0.2373,-0.2372,-0.2384,-0.2389,-0.2402,-0.2429,-0.2392,-0.2392,-0.2399,-0.2463,-0.2365,-0.2361,-0.2427,-0.2428,-0.2429,-0.2459,0,-0.2039,-0.2083,-0.2115,-0.2158,-0.2186,-0.2222,-0.2261,-0.2299,-0.2326,-0.2362,-0.2377,-0.2407,-0.2394,-0.2403,-0.2417,-0.243,-0.2442,-0.2422,-0.244,-0.2441,-0.2348,-0.2363,-0.2191,-0.2195,-0.2464,-0.2465,-0.2465,0,-0.2045,-0.2073,-0.2116,-0.2175,-0.2191,-0.2223,-0.2281,-0.2315,-0.2372,-0.2394,-0.2423,-0.2439,-0.247,-0.2449,-0.2481,-0.2468,-0.2467,-0.247,-0.2471,-0.2375,-0.2351,-0.2214,-0.2193,-0.2473,-0.2472,-0.2471,-0.2471,0,-0.2011,-0.2072,-0.2101,-0.2123,-0.2197,-0.2221,-0.2255,-0.2317,-0.2347,-0.2408,-0.2437,-0.2476,-0.2495,-0.2505,-0.2504,-0.2499,-0.2529,-0.2525,-0.2438,-0.2432,-0.2286,-0.2264,-0.2544,-0.2544,-0.2544,-0.2544,-0.2544,0,-0.2,-0.2021,-0.2087,-0.2103,-0.2139,-0.2199,-0.224,-0.2284,-0.2348,-0.2386,-0.2439,-0.2474,-0.2509,-0.2528,-0.2522,-0.2485,-0.2543,-0.2441,-0.2431,-0.2287,-0.2266,-0.2506,-0.2501,-0.2545,-0.2545,-0.2545,-0.2544,0,-0.1955,-0.2,-0.2034,-0.2104,-0.2123,-0.2144,-0.2214,-0.2247,-0.2316,-0.2369,-0.2389,-0.2476,-0.2495,-0.2511,-0.2533,-0.2495,-0.248,-0.2452,-0.2274,-0.2241,-0.2372,-0.2368,-0.2367,-0.2364,-0.2361,-0.2359,-0.2357,0,-0.1935,-0.1948,-0.2011,-0.2027,-0.2055,-0.2097,-0.2129,-0.2211,-0.225,-0.2362,-0.2384,-0.2437,-0.2451,-0.2443,-0.2389,-0.2349,-0.2413,-0.2162,-0.2114,-0.2362,-0.2354,-0.2354,-0.2354,-0.194,-0.1935,-0.1931,-0.1927,0,-0.1887,-0.1907,-0.1935,-0.1961,-0.1994,-0.2027,-0.2079,-0.2107,-0.2208,-0.2256,-0.2321,-0.2344,-0.2348,-0.2224,-0.2162,-0.2117,-0.2152,-0.2073,-0.2385,-0.2,-0.1958,-0.195,-0.1964,-0.1889,-0.1893,-0.1896,-0.1898,-0.1899,-0.184,-0.1838,-0.1866,-0.1881,-0.1918,-0.1933,-0.1917,-0.1991,-0.2022,-0.2058,-0.2171,-0.2134,-0.2134,-0.1941,-0.1856,-0.178,-0.1928,-0.184,-0.1854,-0.1872,-0.1806,-0.176,-0.1642,-0.1644,-0.1646,-0.1648,-0.1649,0,-0.1766,-0.1769,-0.1782,-0.1792,-0.1778,-0.1826,-0.186,-0.1824,-0.1814,-0.1874,-0.1891,-0.172,-0.163,-0.1623,-0.1457,-0.143,-0.1428,-0.136,-0.1359,-0.1397,-0.1431,-0.1343,-0.1057,-0.1055,-0.1053,-0.1051,0,0,-0.1729,-0.1701,-0.1698,-0.1635,-0.1638,-0.1569,-0.1553,-0.1528,-0.1529,-0.1483,-0.145,-0.1553,-0.1587,-0.1317,-0.126,-0.1132,-0.1252,-0.1077,-0.1555,-0.1592,-0.1624,-0.1711,-0.1619,0,0,0,0,0]},{"header":{"parameterUnit":"m.s-1","parameterCategory":2,"la1":30.2991,"la2":30.254,"lo1":-89.0895,"lo2":-89.0444,"dy":0.0017,"dx":0.0017,"nx":28,"ny":28,"refTime":"2023-10-15T03:00:00:Z","depth":"2","parameterNumber":3,"parameterNumberName":"V-component_of_CURRENTS"},"data":[0,0,0,0,0,0,0,0,0,0,0,0,0,0,0,0,0,0,0,0,0,0,0,0,0,0,0,0,0,0,0,0,0,0,0,0,0,0,0,0,0,0,0,0,0,0,0,0,0,0,0,0,0,0,0,0,0,0,-0.0183,-0.0182,0,-0.0141,-0.0141,-0.0141,-0.0108,-0.0107,-0.0107,-0.0106,-0.0061,-0.0061,-0.006,0,0,0,0,0,0,0,0,0,0,0,0,0,-0.0207,-0.0207,-0.0183,-0.0182,-0.0181,-0.0141,-0.0141,-0.0141,-0.0108,-0.0107,-0.0107,-0.0106,-0.0062,-0.0061,-0.006,0,0,0,0,0,0,0,0,0,0,0,0,0,-0.0185,-0.0207,-0.0183,-0.016,-0.0157,-0.0142,-0.0141,-0.014,-0.0108,-0.0107,-0.0107,-0.0106,-0.0062,-0.0061,-0.006,-0.0065,0,0,-0.0056,-0.0055,0,0,0,0,0,0,0,0,-0.0186,-0.0184,-0.0164,-0.0161,-0.0158,-0.0128,-0.0133,-0.0115,-0.0108,-0.0128,-0.0106,-0.0106,-0.0083,-0.008,-0.0075,-0.0063,-0.0061,-0.0056,-0.0055,-0.0055,-0.0054,0,0,0,0,0,0,0,-0.0188,-0.0186,-0.0167,-0.0163,-0.016,-0.0142,-0.0139,-0.0129,-0.011,-0.0126,-0.0123,-0.0117,-0.0082,-0.0077,-0.0074,-0.006,-0.0056,-0.0055,-0.0054,-0.0054,-0.0049,-0.0049,0,0,0,0,0,0,-0.0193,-0.0187,-0.0169,-0.0166,-0.017,-0.0142,-0.0138,-0.0139,-0.011,-0.0105,-0.0118,-0.0116,-0.0079,-0.0076,-0.0072,-0.008,-0.0055,-0.0054,-0.0053,-0.0048,-0.0049,-0.005,0,0,0,0,0,0,-0.0194,-0.0192,-0.017,-0.0174,-0.017,-0.0143,-0.0144,-0.0139,-0.0133,-0.0104,-0.0099,-0.0117,-0.0078,-0.0074,-0.007,-0.0078,-0.0053,-0.0052,-0.0048,-0.0049,-0.0049,-0.0094,0,0,0,0,0,0,-0.0195,-0.0193,-0.0198,-0.0175,-0.017,-0.0168,-0.0144,-0.0138,-0.013,-0.0127,-0.0102,-0.0097,-0.0078,-0.0072,-0.0069,-0.0076,-0.0051,-0.0047,-0.0048,-0.0049,-0.0091,-0.0096,-0.01,0,0,0,0,0,-0.0196,-0.0205,-0.0198,-0.0196,-0.0177,-0.0168,-0.0165,-0.0143,-0.0131,-0.0135,-0.0118,-0.0097,-0.0077,-0.0072,-0.0068,-0.0075,-0.0046,-0.0048,-0.0049,-0.0089,-0.0095,-0.01,0,0,0,0,0,0,-0.0216,-0.0202,-0.0194,-0.0198,-0.0187,-0.0162,-0.0162,-0.0148,-0.0138,-0.0136,-0.0107,-0.0102,-0.0101,-0.0085,-0.008,-0.0077,-0.0057,-0.0058,-0.009,-0.0095,-0.0099,-0.0101,-0.005,0,0,0,0,0,-0.0224,-0.023,-0.021,-0.0216,-0.0211,-0.0189,-0.0182,-0.017,-0.0155,-0.015,-0.0131,-0.0114,-0.0104,-0.0097,-0.0086,-0.0086,-0.0053,-0.0087,-0.0092,-0.0095,-0.0095,-0.0061,-0.0062,-0.0054,-0.0054,-0.0054,0,0,-0.0233,-0.0226,-0.0229,-0.0221,-0.021,-0.0215,-0.0184,-0.018,-0.0184,-0.0147,-0.0149,-0.013,-0.0108,-0.0108,-0.0105,-0.0094,-0.0077,-0.0097,-0.01,-0.0098,-0.0062,-0.0063,-0.0064,-0.0055,-0.0055,-0.0055,0,0,-0.0259,-0.0249,-0.0265,-0.0259,-0.0248,-0.0236,-0.0237,-0.0218,-0.0207,-0.0208,-0.0182,-0.0168,-0.0154,-0.0136,-0.0126,-0.0148,-0.0102,-0.0145,-0.0166,-0.0133,-0.0133,-0.0133,-0.0079,-0.0073,-0.0145,-0.0146,-0.0146,0,-0.027,-0.0287,-0.0268,-0.028,-0.0279,-0.0249,-0.0266,-0.0253,-0.0235,-0.0228,-0.0216,-0.0186,-0.0167,-0.0158,-0.0164,-0.0156,-0.0123,-0.0148,-0.0138,-0.0137,-0.0136,-0.0081,-0.0074,-0.0148,-0.0148,-0.0147,-0.0147,0,-0.0307,-0.0321,-0.0328,-0.0337,-0.0335,-0.0343,-0.0323,-0.0318,-0.0301,-0.0283,-0.0268,-0.0238,-0.0217,-0.021,-0.0193,-0.0179,-0.0152,-0.0148,-0.0124,-0.0139,-0.008,-0.0072,-0.0151,-0.015,-0.015,-0.0149,0,0,-0.0335,-0.0353,-0.0357,-0.0374,-0.0365,-0.0372,-0.0373,-0.0365,-0.0365,-0.0337,-0.033,-0.0303,-0.0274,-0.026,-0.0231,-0.0201,-0.0161,-0.0174,-0.0172,-0.0118,-0.007,-0.006,-0.005,-0.0155,-0.0155,-0.0154,-0.0026,0,-0.0372,-0.0415,-0.0408,-0.0449,-0.0468,-0.0442,-0.0446,-0.0432,-0.0409,-0.0393,-0.0345,-0.033,-0.0297,-0.0285,-0.025,-0.0186,-0.0145,-0.0195,-0.0065,-0.0061,-0.0049,-0.0043,-0.0079,0.003,-0.0019,-0.0017,-0.0016,0,-0.0412,-0.0437,-0.0482,-0.0509,-0.0513,-0.0527,-0.0525,-0.0525,-0.0485,-0.0464,-0.0427,-0.0386,-0.0333,-0.0308,-0.0192,-0.0224,-0.0152,-0.0096,-0.009,-0.0061,-0.0038,0.0035,0.0047,-0.0003,-0.0004,-0.0005,-0.0006,0,-0.0452,-0.0491,-0.0532,-0.0539,-0.0557,-0.0568,-0.0571,-0.0545,-0.0546,-0.0504,-0.0494,-0.0421,-0.0382,-0.0289,-0.0166,-0.018,-0.0027,-0.0033,0.0052,0.0055,0.006,0.0061,0.005,0.005,0.005,0.0049,0.0049,0,-0.0496,-0.0531,-0.0555,-0.0579,-0.0623,-0.0612,-0.064,-0.0627,-0.0604,-0.0607,-0.0533,-0.0508,-0.0377,-0.0274,-0.0168,-0.0023,-0.0022,0.0056,0.0084,0.0044,0.0043,0.0035,0.0032,0.0054,0.0053,0.0052,0.0051,0,-0.0538,-0.0551,-0.0604,-0.0635,-0.0645,-0.0676,-0.0696,-0.0713,-0.0677,-0.0675,-0.0663,-0.0563,-0.0429,-0.0278,-0.011,-0.0026,0.0108,0.016,0.0118,0.0137,0.0171,0.0164,0.0258,0.0259,0.0261,0.0261,0.0262,0,-0.0565,-0.0593,-0.0651,-0.0686,-0.0704,-0.0741,-0.0767,-0.0753,-0.0764,-0.0708,-0.0709,-0.058,-0.0497,-0.0231,-0.0049,0.0153,0.016,0.0235,0.0188,0.0173,0.0191,0.0182,0.0174,0.0193,0.0194,0.0194,0.0194,0,-0.0613,-0.063,-0.0675,-0.0746,-0.0791,-0.0839,-0.0867,-0.0885,-0.086,-0.0842,-0.0782,-0.0709,-0.0459,-0.0255,0.0009,0.0122,0.0194,0.0241,0.0249,0.0132,0.0118,0.0133,0.0126,0.0195,0.0195,0.0195,0.0195,0.0195,-0.0644,-0.069,-0.0746,-0.0811,-0.0866,-0.0921,-0.095,-0.0967,-0.0975,-0.0936,-0.0851,-0.0728,-0.0513,-0.0165,0.0045,0.0242,0.022,0.0261,0.0258,0.0256,0.0211,0.0198,0.0284,0.0285,0.0285,0.0285,0.0286,0,-0.0682,-0.0733,-0.0805,-0.0886,-0.0951,-0.0962,-0.1007,-0.1012,-0.1016,-0.0965,-0.0894,-0.0666,-0.0438,-0.0189,0.0104,0.0268,0.0264,0.0311,0.0264,0.0261,0.0259,0.0212,0.0287,0.0288,0.0289,0.029,0,0,-0.0705,-0.078,-0.082,-0.0934,-0.0988,-0.1045,-0.1064,-0.1057,-0.1012,-0.0958,-0.0869,-0.0747,-0.0456,-0.0243,-0.0019,0.0146,0.0167,0.017,0.0144,0.0059,0.0055,0.02,0.0121,0,0,0,0,0]}],[{"header":{"parameterUnit":"m.s-1","parameterCategory":2,"la1":30.2991,"la2":30.254,"lo1":-89.0895,"lo2":-89.0444,"dy":0.0017,"dx":0.0017,"nx":28,"ny":28,"refTime":"2023-10-15T03:00:00:Z","depth":"4","parameterNumber":2,"parameterNumberName":"U-component_of_CURRENTS"},"data":[0,0,0,0,0,0,0,0,0,0,0,0,0,0,0,0,0,0,0,0,0,0,0,0,0,0,0,0,0,0,0,0,0,0,0,0,0,0,0,0,0,0,0,0,0,0,0,0,0,0,0,0,0,0,0,0,0,0,-0.1619,-0.162,0,-0.1676,-0.1677,-0.1677,-0.1703,-0.1703,-0.1704,-0.1704,-0.1769,-0.1771,-0.1772,0,0,0,0,0,0,0,0,0,0,0,0,0,-0.153,-0.1531,-0.1619,-0.162,-0.1621,-0.1676,-0.1677,-0.1678,-0.1703,-0.1703,-0.1704,-0.1704,-0.1769,-0.1771,-0.1773,0,0,0,0,0,0,0,0,0,0,0,0,0,-0.1574,-0.1532,-0.1619,-0.1642,-0.1645,-0.1676,-0.1677,-0.1678,-0.1703,-0.1703,-0.1704,-0.1704,-0.1768,-0.177,-0.1773,-0.1784,0,0,-0.178,-0.1781,0,0,0,0,0,0,0,0,-0.1572,-0.1577,-0.1638,-0.164,-0.1644,-0.1685,-0.167,-0.1714,-0.1703,-0.1679,-0.1704,-0.1704,-0.1743,-0.1747,-0.1755,-0.1787,-0.179,-0.178,-0.1782,-0.1783,-0.1784,0,0,0,0,0,0,0,-0.1568,-0.1575,-0.164,-0.1639,-0.1642,-0.1649,-0.1655,-0.1678,-0.1708,-0.1681,-0.1683,-0.1693,-0.1744,-0.1752,-0.1757,-0.1791,-0.178,-0.1783,-0.1784,-0.1785,-0.1884,-0.1885,0,0,0,0,0,0,-0.1566,-0.1572,-0.1638,-0.1642,-0.161,-0.165,-0.1657,-0.167,-0.1707,-0.1714,-0.1693,-0.1694,-0.1748,-0.1754,-0.1759,-0.1823,-0.1783,-0.1785,-0.1787,-0.1883,-0.1884,-0.1886,0,0,0,0,0,0,-0.1564,-0.1571,-0.1636,-0.1609,-0.1618,-0.1652,-0.1665,-0.1671,-0.1701,-0.1717,-0.1723,-0.172,-0.1748,-0.1756,-0.1796,-0.1823,-0.1786,-0.1789,-0.1882,-0.1883,-0.1885,-0.1919,0,0,0,0,0,0,-0.1561,-0.157,-0.159,-0.1609,-0.162,-0.1668,-0.1666,-0.1672,-0.1706,-0.1709,-0.1742,-0.1747,-0.1749,-0.1793,-0.1799,-0.1826,-0.179,-0.188,-0.1882,-0.1884,-0.1917,-0.1922,-0.1926,0,0,0,0,0,-0.1557,-0.158,-0.1591,-0.16,-0.1643,-0.1669,-0.1675,-0.1698,-0.1707,-0.1725,-0.1747,-0.1747,-0.1811,-0.1796,-0.1803,-0.1831,-0.1879,-0.1882,-0.1884,-0.1914,-0.1921,-0.1926,0,0,0,0,0,0,-0.1553,-0.1586,-0.1598,-0.1631,-0.1655,-0.1675,-0.17,-0.1712,-0.1743,-0.1752,-0.1763,-0.177,-0.1815,-0.182,-0.1803,-0.1866,-0.1845,-0.1849,-0.1865,-0.1872,-0.1876,-0.1873,-0.1793,0,0,0,0,0,-0.1562,-0.1589,-0.1615,-0.1644,-0.166,-0.1684,-0.1704,-0.1717,-0.1741,-0.1756,-0.178,-0.1805,-0.1828,-0.1847,-0.1868,-0.1905,-0.189,-0.1928,-0.1933,-0.1937,-0.1939,-0.1943,-0.1948,-0.1894,-0.1894,-0.1894,0,0,-0.1569,-0.1591,-0.1608,-0.1645,-0.1669,-0.1696,-0.1697,-0.1731,-0.1757,-0.1759,-0.1812,-0.1827,-0.1842,-0.1881,-0.1902,-0.1891,-0.1942,-0.194,-0.1943,-0.1944,-0.1946,-0.1951,-0.1956,-0.1896,-0.1896,-0.1895,0,0,-0.1587,-0.1618,-0.1644,-0.1667,-0.1706,-0.172,-0.1735,-0.1769,-0.1792,-0.1836,-0.1842,-0.1873,-0.1917,-0.1928,-0.1939,-0.1985,-0.1967,-0.1998,-0.2023,-0.2027,-0.2031,-0.2034,-0.2007,-0.2007,-0.2001,-0.2001,-0.2001,0,-0.1597,-0.163,-0.1655,-0.1684,-0.1709,-0.1734,-0.1763,-0.179,-0.1833,-0.1853,-0.186,-0.1921,-0.1937,-0.1973,-0.1989,-0.1996,-0.1985,-0.1998,-0.2032,-0.2035,-0.2038,-0.2009,-0.2009,-0.2003,-0.2002,-0.2002,-0.2002,0,-0.1623,-0.166,-0.1679,-0.1723,-0.1753,-0.1783,-0.1818,-0.1854,-0.1884,-0.1904,-0.1956,-0.1975,-0.2007,-0.2021,-0.2022,-0.2057,-0.2036,-0.2036,-0.2013,-0.2046,-0.2013,-0.2012,-0.2005,-0.2005,-0.2004,-0.2004,0,0,-0.1611,-0.1683,-0.1692,-0.1721,-0.1776,-0.1799,-0.185,-0.1895,-0.1926,-0.197,-0.2007,-0.2051,-0.2059,-0.2071,-0.2078,-0.2087,-0.2094,-0.2076,-0.2075,-0.2041,-0.2082,-0.1951,-0.1938,-0.2103,-0.2103,-0.2104,-0.2044,0,-0.1624,-0.168,-0.1714,-0.1772,-0.1802,-0.1845,-0.1889,-0.1933,-0.197,-0.2012,-0.2038,-0.2076,-0.2079,-0.2096,-0.2108,-0.2102,-0.2098,-0.2109,-0.2062,-0.206,-0.1935,-0.1935,-0.2106,-0.2043,-0.2043,-0.2043,-0.2043,0,-0.1628,-0.1667,-0.1726,-0.1796,-0.1815,-0.1856,-0.1923,-0.1961,-0.2018,-0.2049,-0.2087,-0.2105,-0.2133,-0.2128,-0.2127,-0.2135,-0.2113,-0.21,-0.2097,-0.1964,-0.1929,-0.201,-0.2042,-0.2042,-0.2042,-0.2043,-0.2043,0,-0.1592,-0.1672,-0.172,-0.1745,-0.1828,-0.1868,-0.1911,-0.1974,-0.2004,-0.2069,-0.2091,-0.2129,-0.2141,-0.2139,-0.2115,-0.2127,-0.2093,-0.2101,-0.1957,-0.1946,-0.2068,-0.2065,-0.2091,-0.2091,-0.2092,-0.2092,-0.2092,0,-0.1572,-0.1614,-0.1714,-0.1737,-0.1793,-0.1858,-0.1913,-0.1961,-0.202,-0.2039,-0.2103,-0.2105,-0.2147,-0.2132,-0.2115,-0.2017,-0.2087,-0.1949,-0.1923,-0.2081,-0.2081,-0.2066,-0.2064,-0.2089,-0.209,-0.209,-0.2091,0,-0.1516,-0.1585,-0.1645,-0.1745,-0.1778,-0.1815,-0.1902,-0.193,-0.1999,-0.2023,-0.2042,-0.2087,-0.2061,-0.2071,-0.205,-0.1987,-0.193,-0.1879,-0.2024,-0.2009,-0.1781,-0.1782,-0.1708,-0.1703,-0.1699,-0.1695,-0.1692,0,-0.1487,-0.1516,-0.1632,-0.1666,-0.1716,-0.1783,-0.182,-0.1906,-0.1925,-0.1983,-0.1974,-0.1984,-0.1996,-0.1843,-0.1883,-0.1822,-0.1808,-0.176,-0.1793,-0.176,-0.1743,-0.175,-0.1756,-0.1685,-0.1684,-0.1683,-0.1682,0,-0.1425,-0.1484,-0.1532,-0.1597,-0.1654,-0.1697,-0.1754,-0.1754,-0.1828,-0.1915,-0.1846,-0.1811,-0.1771,-0.1741,-0.1698,-0.1664,-0.1786,-0.1715,-0.1724,-0.1755,-0.1732,-0.172,-0.1731,-0.1667,-0.1669,-0.167,-0.1671,0,-0.138,-0.1395,-0.1464,-0.1504,-0.1573,-0.1575,-0.1623,-0.1626,-0.1647,-0.1718,-0.1684,-0.1696,-0.1742,-0.1656,-0.1619,-0.1571,-0.1558,-0.1512,-0.1532,-0.1549,-0.1527,-0.1476,-0.1296,0,0,0,0,0,-0.132,-0.1321,-0.1359,-0.1393,-0.1455,-0.148,-0.1558,-0.1605,-0.1682,-0.159,-0.1629,-0.1583,-0.1512,-0.1521,-0.1437,-0.1561,-0.1575,-0.1458,-0.1538,-0.1584,-0.1601,-0.1591,0,0,0,0,0,0,-0.128,-0.1316,-0.1318,-0.1283,-0.1282,-0.1321,-0.1361,-0.1418,-0.1374,-0.1458,-0.1426,-0.1487,-0.1445,-0.1529,-0.1402,-0.1406,-0.1423,-0.1479,-0.1475,-0.1574,-0.1589,-0.1603,-0.1599,0,0,0,0,0]},{"header":{"parameterUnit":"m.s-1","parameterCategory":2,"la1":30.2991,"la2":30.254,"lo1":-89.0895,"lo2":-89.0444,"dy":0.0017,"dx":0.0017,"nx":28,"ny":28,"refTime":"2023-10-15T03:00:00:Z","depth":"4","parameterNumber":3,"parameterNumberName":"V-component_of_CURRENTS"},"data":[0,0,0,0,0,0,0,0,0,0,0,0,0,0,0,0,0,0,0,0,0,0,0,0,0,0,0,0,0,0,0,0,0,0,0,0,0,0,0,0,0,0,0,0,0,0,0,0,0,0,0,0,0,0,0,0,0,0,-0.0078,-0.0077,0,-0.0049,-0.0048,-0.0048,-0.0027,-0.0026,-0.0026,-0.0026,0.0004,0.0004,0.0005,0,0,0,0,0,0,0,0,0,0,0,0,0,-0.0091,-0.0091,-0.0078,-0.0077,-0.0077,-0.0049,-0.0048,-0.0048,-0.0027,-0.0026,-0.0026,-0.0026,0.0003,0.0004,0.0005,0,0,0,0,0,0,0,0,0,0,0,0,0,-0.0076,-0.0091,-0.0078,-0.0062,-0.0061,-0.0049,-0.0048,-0.0048,-0.0027,-0.0026,-0.0026,-0.0026,0.0003,0.0004,0.0005,0.0003,0,0,0.0007,0.0008,0,0,0,0,0,0,0,0,-0.0077,-0.0076,-0.0065,-0.0063,-0.0061,-0.004,-0.0042,-0.0031,-0.0027,-0.004,-0.0026,-0.0025,-0.0011,-0.0009,-0.0005,0.0004,0.0005,0.0007,0.0008,0.0008,0.0009,0,0,0,0,0,0,0,-0.0078,-0.0077,-0.0067,-0.0065,-0.0062,-0.0049,-0.0046,-0.004,-0.0028,-0.0039,-0.0037,-0.0033,-0.001,-0.0006,-0.0004,0.0006,0.0007,0.0008,0.0009,0.0009,0.0009,0.0009,0,0,0,0,0,0,-0.0082,-0.0078,-0.0068,-0.0066,-0.0068,-0.0049,-0.0046,-0.0048,-0.0028,-0.0025,-0.0033,-0.0032,-0.0008,-0.0005,-0.0003,-0.0014,0.0008,0.0009,0.001,0.001,0.0009,0.0009,0,0,0,0,0,0,-0.0083,-0.0082,-0.0069,-0.007,-0.0068,-0.0049,-0.0051,-0.0048,-0.0045,-0.0024,-0.0021,-0.0035,-0.0007,-0.0004,-0.0004,-0.0012,0.0009,0.001,0.0011,0.001,0.0009,-0.0029,0,0,0,0,0,0,-0.0083,-0.0082,-0.0087,-0.0071,-0.0068,-0.0069,-0.0051,-0.0047,-0.0043,-0.0041,-0.0024,-0.0021,-0.0007,-0.0006,-0.0004,-0.0011,0.0011,0.0011,0.001,0.0009,-0.0027,-0.0031,-0.0034,0,0,0,0,0,-0.0084,-0.0093,-0.0088,-0.0087,-0.0075,-0.0069,-0.0067,-0.0052,-0.0044,-0.0048,-0.0037,-0.0022,-0.001,-0.0006,-0.0003,-0.001,0.0012,0.001,0.0009,-0.0026,-0.003,-0.0034,0,0,0,0,0,0,-0.0101,-0.0091,-0.0085,-0.0091,-0.0083,-0.0065,-0.0067,-0.0057,-0.0051,-0.0051,-0.003,-0.0026,-0.0029,-0.0016,-0.0012,-0.0012,0.0004,0.0004,-0.0023,-0.0028,-0.0031,-0.0039,0.0012,0,0,0,0,0,-0.0108,-0.0114,-0.0099,-0.0106,-0.0102,-0.0086,-0.0082,-0.0074,-0.0065,-0.0062,-0.0049,-0.0037,-0.0031,-0.0027,-0.0019,-0.0021,-0.001,-0.0023,-0.0027,-0.003,-0.0035,-0.0019,-0.0022,0.0005,0.0005,0.0005,0,0,-0.0116,-0.0112,-0.0115,-0.011,-0.0103,-0.0109,-0.0084,-0.0084,-0.009,-0.006,-0.0067,-0.0051,-0.0035,-0.0037,-0.0037,-0.0027,-0.0034,-0.0031,-0.0034,-0.0038,-0.002,-0.0023,-0.0025,0.0004,0.0005,0.0005,0,0,-0.0141,-0.0133,-0.0148,-0.0144,-0.0137,-0.0128,-0.013,-0.0117,-0.0111,-0.0115,-0.0095,-0.0085,-0.0076,-0.0064,-0.0057,-0.0076,-0.0055,-0.0072,-0.0096,-0.008,-0.0082,-0.0084,-0.0083,-0.0085,-0.0073,-0.0073,-0.0073,0,-0.0153,-0.0169,-0.0151,-0.0163,-0.0165,-0.0141,-0.0158,-0.0149,-0.0138,-0.0137,-0.0124,-0.0106,-0.0089,-0.0088,-0.0093,-0.0084,-0.0076,-0.0081,-0.0085,-0.0086,-0.0087,-0.0086,-0.0087,-0.0075,-0.0074,-0.0074,-0.0074,0,-0.0186,-0.02,-0.0207,-0.0216,-0.0216,-0.0226,-0.0212,-0.0212,-0.02,-0.0188,-0.0183,-0.0156,-0.0145,-0.0135,-0.012,-0.0119,-0.0112,-0.0092,-0.0074,-0.0092,-0.009,-0.009,-0.0077,-0.0077,-0.0076,-0.0076,0,0,-0.0215,-0.0229,-0.0234,-0.0252,-0.0246,-0.0255,-0.0261,-0.0262,-0.027,-0.0247,-0.0253,-0.0228,-0.0204,-0.0195,-0.0168,-0.015,-0.0149,-0.0126,-0.0124,-0.0127,-0.0127,-0.012,-0.0119,-0.0127,-0.0127,-0.0127,-0.0127,0,-0.025,-0.029,-0.0284,-0.0325,-0.0343,-0.0325,-0.0335,-0.033,-0.0315,-0.0313,-0.0274,-0.0269,-0.0229,-0.0224,-0.0199,-0.0159,-0.015,-0.0152,-0.0108,-0.0108,-0.0099,-0.0119,-0.0127,-0.0127,-0.0127,-0.0127,-0.0127,0,-0.0286,-0.0309,-0.0354,-0.0385,-0.0392,-0.0409,-0.0423,-0.0427,-0.0406,-0.0393,-0.0368,-0.0335,-0.0305,-0.0269,-0.0211,-0.0214,-0.018,-0.0147,-0.0146,-0.0125,-0.01,-0.0102,-0.0127,-0.0127,-0.0127,-0.0127,-0.0127,0,-0.0322,-0.0362,-0.0403,-0.0412,-0.0436,-0.0454,-0.0464,-0.0453,-0.0463,-0.0441,-0.0443,-0.0393,-0.0376,-0.0317,-0.0243,-0.0229,-0.0183,-0.0154,-0.0121,-0.0121,-0.0109,-0.0107,-0.0127,-0.0127,-0.0127,-0.0127,-0.0127,0,-0.0359,-0.0396,-0.0427,-0.045,-0.0504,-0.0498,-0.0539,-0.0536,-0.0531,-0.0547,-0.0487,-0.0486,-0.0386,-0.0341,-0.027,-0.0199,-0.0205,-0.0134,-0.012,-0.0127,-0.0127,-0.011,-0.0108,-0.0127,-0.0127,-0.0127,-0.0127,0,-0.0393,-0.041,-0.0465,-0.0506,-0.0523,-0.056,-0.0597,-0.0621,-0.0605,-0.0623,-0.062,-0.0561,-0.0492,-0.0398,-0.0306,-0.0243,-0.0171,-0.015,-0.0185,-0.0171,-0.0114,-0.0114,-0.0111,-0.0111,-0.011,-0.011,-0.011,0,-0.0413,-0.0442,-0.0511,-0.0551,-0.0575,-0.0623,-0.0657,-0.066,-0.0677,-0.0669,-0.068,-0.0623,-0.0571,-0.0439,-0.0334,-0.0206,-0.0181,-0.0155,-0.0113,-0.0126,-0.0112,-0.0113,-0.0113,-0.011,-0.011,-0.011,-0.011,0,-0.0453,-0.0477,-0.0523,-0.0603,-0.0657,-0.0711,-0.0752,-0.0768,-0.0765,-0.076,-0.0725,-0.0645,-0.057,-0.0442,-0.0347,-0.0252,-0.017,-0.0152,-0.0151,-0.0112,-0.0125,-0.0111,-0.0112,-0.0109,-0.0109,-0.0109,-0.0109,0,-0.0482,-0.0525,-0.0585,-0.0653,-0.0724,-0.0776,-0.0792,-0.0804,-0.0812,-0.0782,-0.0777,-0.0678,-0.0619,-0.0469,-0.0383,-0.0284,-0.0245,-0.0209,-0.0204,-0.0203,-0.0217,-0.0246,-0.0264,0,0,0,0,0,-0.0507,-0.0559,-0.063,-0.0708,-0.0775,-0.0809,-0.0849,-0.085,-0.0843,-0.0822,-0.0792,-0.0713,-0.0563,-0.0498,-0.0396,-0.0376,-0.0235,-0.0254,-0.0193,-0.0105,-0.0105,-0.0102,0,0,0,0,0,0,-0.0529,-0.06,-0.0636,-0.0733,-0.0786,-0.0857,-0.0878,-0.0872,-0.0844,-0.0821,-0.0736,-0.0691,-0.0541,-0.062,-0.0396,-0.0367,-0.0314,-0.0182,-0.018,-0.0104,-0.0105,-0.0106,-0.0103,0,0,0,0,0]}]]